TimeCDT,TemperatureF,Dew PointF,Humidity,Sea Level PressureIn,VisibilityMPH,Wind Direction,Wind SpeedMPH,Gust SpeedMPH,PrecipitationIn,Events,Conditions,WindDirDegrees,DateUTC
12:56 AM,80.1,73.9,81,29.83,10.0,SSW,12.7,-,N/A,,Clear,200,2013-08-30 05:56:00
1:56 AM,80.1,73.9,81,29.83,10.0,SW,9.2,-,N/A,,Clear,220,2013-08-30 06:56:00
2:56 AM,78.1,73.9,87,29.79,10.0,SSW,8.1,-,0.00,,Mostly Cloudy,200,2013-08-30 07:56:00
3:56 AM,75.9,73.0,91,29.80,9.0,Calm,Calm,-,0.00,,Scattered Clouds,0,2013-08-30 08:56:00
4:56 AM,75.0,72.0,90,29.79,10.0,SSW,3.5,-,0.00,,Partly Cloudy,200,2013-08-30 09:56:00
5:56 AM,73.0,72.0,96,29.79,7.0,SSW,3.5,-,N/A,,Clear,210,2013-08-30 10:56:00
6:56 AM,75.0,72.0,90,29.80,9.0,Calm,Calm,-,N/A,,Overcast,0,2013-08-30 11:56:00
7:52 AM,75.2,71.6,89,29.83,10.0,Calm,Calm,-,N/A,,Mostly Cloudy,0,2013-08-30 12:52:00
7:56 AM,75.0,72.0,90,29.81,10.0,Calm,Calm,-,N/A,,Mostly Cloudy,0,2013-08-30 12:56:00
8:56 AM,79.0,71.1,77,29.83,10.0,North,5.8,-,N/A,,Scattered Clouds,360,2013-08-30 13:56:00
9:23 AM,78.8,69.8,74,29.85,10.0,North,9.2,-,N/A,,Mostly Cloudy,10,2013-08-30 14:23:00
9:56 AM,78.1,70.0,76,29.84,10.0,NNE,8.1,-,N/A,,Overcast,30,2013-08-30 14:56:00
10:19 AM,80.6,69.8,70,29.87,10.0,North,10.4,17.3,N/A,,Mostly Cloudy,10,2013-08-30 15:19:00
10:56 AM,79.0,69.1,72,29.86,10.0,North,13.8,18.4,N/A,,Mostly Cloudy,360,2013-08-30 15:56:00
11:13 AM,80.6,68.0,65,29.88,10.0,NNE,11.5,-,N/A,,Mostly Cloudy,20,2013-08-30 16:13:00
11:56 AM,81.0,64.9,58,29.88,10.0,NNE,11.5,19.6,N/A,,Partly Cloudy,30,2013-08-30 16:56:00
12:56 PM,82.0,64.0,54,29.87,10.0,North,11.5,18.4,N/A,,Mostly Cloudy,10,2013-08-30 17:56:00
1:56 PM,82.9,63.0,51,29.87,10.0,NE,9.2,18.4,N/A,,Mostly Cloudy,50,2013-08-30 18:56:00
2:56 PM,84.9,64.9,51,29.86,10.0,North,9.2,17.3,N/A,,Mostly Cloudy,10,2013-08-30 19:56:00
3:56 PM,84.9,62.1,46,29.85,10.0,NNE,11.5,19.6,N/A,,Clear,20,2013-08-30 20:56:00
4:56 PM,84.9,63.0,48,29.84,10.0,North,8.1,-,N/A,,Clear,10,2013-08-30 21:56:00
5:56 PM,84.0,61.0,46,29.85,10.0,NNE,9.2,-,N/A,,Clear,20,2013-08-30 22:56:00
6:56 PM,81.0,61.0,50,29.85,10.0,NE,9.2,-,N/A,,Clear,40,2013-08-30 23:56:00
7:56 PM,75.9,61.0,60,29.86,10.0,NE,5.8,-,N/A,,Clear,40,2013-08-31 00:56:00
8:56 PM,73.0,62.1,68,29.88,10.0,NE,3.5,-,N/A,,Clear,40,2013-08-31 01:56:00
9:56 PM,73.0,62.1,68,29.88,10.0,ENE,9.2,-,N/A,,Clear,60,2013-08-31 02:56:00
10:56 PM,70.0,63.0,78,29.89,10.0,NE,8.1,-,N/A,,Clear,50,2013-08-31 03:56:00
11:56 PM,68.0,63.0,84,29.88,10.0,ENE,6.9,-,N/A,,Clear,60,2013-08-31 04:56:00